This is the latest recevied weather packets stored in our database for station/object KF4BAQ-10. If no packets are shown the sender has not sent any weather packets the latest 10 day(s).
| Time | Temp. | Humidity | Pressure | Rain* | Wind** | Luminosity | Snow |
|---|---|---|---|---|---|---|---|
| 1787935126 | 19.44° C | 48% | 1022.4 hPa | - | - | - | - |
| 1787934226 | 19.44° C | 46% | 1022.5 hPa | - | - | - | - |
| 1787933325 | 19.44° C | 48% | 1022.4 hPa | - | - | - | - |
| 1787932425 | 19.44° C | 46% | 1022.3 hPa | - | - | - | - |
| 1787931524 | 18.89° C | 47% | 1022.4 hPa | - | - | - | - |
| 1787930624 | 18.89° C | 46% | 1022.4 hPa | - | - | - | - |
| 1787929724 | 18.89° C | 48% | 1022.3 hPa | - | - | - | - |
| 1787928824 | 18.89° C | 45% | 1022.1 hPa | - | - | - | - |
| 1787927923 | 19.44° C | 46% | 1022 hPa | - | - | - | - |
| 1787927022 | 18.89° C | 47% | 1022 hPa | - | - | - | - |
| 1787926121 | 19.44° C | 47% | 1021.9 hPa | - | - | - | - |
| 1787925216 | 19.44° C | 45% | 1021.9 hPa | - | - | - | - |
| 1787924316 | 19.44° C | 46% | 1021.9 hPa | - | - | - | - |
| 1787923415 | 18.89° C | 47% | 1021.8 hPa | - | - | - | - |
| 1787922515 | 19.44° C | 48% | 1021.6 hPa | - | - | - | - |
| 1787921615 | 18.89° C | 47% | 1021.5 hPa | - | - | - | - |
| 1787920715 | 19.44° C | 47% | 1021.5 hPa | - | - | - | - |
| 1787919815 | 19.44° C | 48% | 1021.5 hPa | - | - | - | - |
| 1787918914 | 19.44° C | 48% | 1021.4 hPa | - | - | - | - |
| 1787918014 | 19.44° C | 47% | 1021.1 hPa | - | - | - | - |
| 1787917114 | 19.44° C | 48% | 1020.8 hPa | - | - | - | - |
| 1787916214 | 18.89° C | 48% | 1020.7 hPa | - | - | - | - |
| 1787915313 | 18.89° C | 48% | 1020.5 hPa | - | - | - | - |
| 1787914413 | 19.44° C | 47% | 1020.4 hPa | - | - | - | - |
| 1787913513 | 19.44° C | 48% | 1020.2 hPa | - | - | - | - |
* Rain since midnight (hover to see other rain measurements)
** Current wind speed in m/s (hover to see current wind gust speed)